This is the latest recevied weather packets stored in our database for station/object IW1CGW-23. If no packets are shown the sender has not sent any weather packets the latest 10 day(s).
| Time | Temp. | Humidity | Pressure | Rain* | Wind** | Luminosity | Snow |
|---|---|---|---|---|---|---|---|
| 1777508612 | 17.22° C | 66% | 1016.8 hPa | - | - | - | - |
| 1777507830 | 17.22° C | 65% | 1016.8 hPa | - | - | - | - |
| 1777507048 | 17.22° C | 65% | 1016.7 hPa | - | - | - | - |
| 1777506266 | 17.22° C | 65% | 1016.6 hPa | - | - | - | - |
| 1777504700 | 17.22° C | 65% | 1016.6 hPa | - | - | - | - |
| 1777503918 | 17.22° C | 65% | 1016.6 hPa | - | - | - | - |
| 1777503134 | 17.22° C | 65% | 1016.6 hPa | - | - | - | - |
| 1777502352 | 17.22° C | 64% | 1016.5 hPa | - | - | - | - |
| 1777501570 | 16.67° C | 64% | 1016.6 hPa | - | - | - | - |
| 1777500005 | 16.67° C | 64% | 1016.2 hPa | - | - | - | - |
| 1777499223 | 16.67° C | 63% | 1016.3 hPa | - | - | - | - |
| 1777498441 | 16.67° C | 63% | 1016.2 hPa | - | - | - | - |
| 1777497659 | 16.11° C | 63% | 1016.1 hPa | - | - | - | - |
| 1777496876 | 16.67° C | 62% | 1016.1 hPa | - | - | - | - |
| 1777496094 | 16.67° C | 61% | 1016.1 hPa | - | - | - | - |
| 1777495313 | 16.67° C | 61% | 1016 hPa | - | - | - | - |
| 1777494530 | 16.67° C | 60% | 1016 hPa | - | - | - | - |
| 1777493748 | 16.67° C | 59% | 1015.8 hPa | - | - | - | - |
| 1777492966 | 17.22° C | 59% | 1015.6 hPa | - | - | - | - |
| 1777491401 | 17.78° C | 57% | 1015.2 hPa | - | - | - | - |
| 1777490618 | 17.78° C | 57% | 1015.1 hPa | - | - | - | - |
| 1777489052 | 18.89° C | 55% | 1015 hPa | - | - | - | - |
| 1777488269 | 18.89° C | 54% | 1014.8 hPa | - | - | - | - |
| 1777487486 | 18.89° C | 54% | 1014.9 hPa | - | - | - | - |
| 1777486702 | 19.44° C | 53% | 1014.8 hPa | - | - | - | - |
* Rain since midnight (hover to see other rain measurements)
** Current wind speed in m/s (hover to see current wind gust speed)